Location: Eaton Estates
(41.3089°N, 82.0057°W)
Time: 16:56:17
(UTC+00:00)

BEESAT - Visible Passes

Search period start: 20 March 2023 00:00
Search period end: 30 March 2023 00:00
Orbit: 698 x 705 km, 98.5° (Epoch: 20 March)

Date Brightness Start Highest point End Pass type
(mag) Time Alt. Az. Time Alt. Az. Time Alt. Az.
20 Mar ? 03:18:00 10° N 03:18:22 12° N 03:18:22 12° N visible
21 Mar ? 02:22:32 10° NNE 02:22:38 11° NNE 02:22:38 11° NNE visible
22 Mar ? 03:05:03 10° N 03:05:45 14° N 03:05:45 14° N visible
23 Mar ? 02:09:51 10° NNE 02:10:00 11° NNE 02:10:00 11° NNE visible
23 Mar ? 03:48:19 10° NNW 03:48:52 12° NNW 03:48:52 12° NNW visible
24 Mar ? 02:52:08 10° N 02:53:07 16° N 02:53:07 16° N visible
25 Mar ? 01:57:14 10° NNE 01:57:21 11° NNE 01:57:21 11° NNE visible
25 Mar ? 03:35:08 10° N 03:36:13 15° NNW 03:36:13 15° NNW visible
26 Mar ? 02:39:17 10° NNE 02:40:27 18° NNE 02:40:27 18° NNE visible
27 Mar ? 03:22:02 10° N 03:23:33 19° NNW 03:23:33 19° NNW visible
28 Mar ? 02:26:29 10° NNE 02:27:46 18° NNE 02:27:46 18° NNE visible
28 Mar ? 04:05:47 10° NNW 04:06:38 12° NW 04:06:38 12° NW visible
29 Mar ? 03:09:01 10° N 03:10:51 22° N 03:10:51 22° N visible
